Milas, Turkey

8:19 PM +03 on December 13, 2017 (GMT +0300)
Bodrum

Weather History for LTFE - February, 2013

Change the Weather History Date:

Sunday, February 3, 2013

  Actual Average Record
Temperature  
Mean Temperature 58 °F -  
Max Temperature 66 °F - - ()
Min Temperature 51 °F - - ()
Degree Days  
Heating Degree Days 6    
Growing Degree Days 8 (Base 50)    
Moisture  
Dew Point 49 °F    
Average Humidity 64    
Maximum Humidity 82    
Minimum Humidity 52    
Precipitation  
Precipitation 0.00 in - - ()
Sea Level Pressure  
Sea Level Pressure 30.07 in    
Wind  
Wind Speed 9 mph ()    
Max Wind Speed 24 mph    
Max Gust Speed 31 mph    
Visibility 6.2 miles    
Events      
T = Trace of Precipitation, MM = Missing Value Source: Averaged Metar Reports

Daily Weather History Graph

Daily Weather History Graph

Search for Another Location

Airport or City:

Trip Planner

Search our weather history database for the weather conditions in past years. The results will help you decide how hot, cold, wet, or windy it might be!

Date:

Astronomy

Feb. 03, 2013 Rise Set
Actual Time 7:10 AM EET 5:36 PM EET
Civil Twilight 6:43 AM EET 6:03 PM EET
Nautical Twilight 6:12 AM EET 6:34 PM EET
Astronomical Twilight 5:41 AM EET 7:05 PM EET
Moon 12:15 AM EET (2/3) 11:00 AM EET (2/3)
Length of Visible Light 11h 20m
Length of Day
10h 25m
Waning Gibbous, 52% of the Moon is Illuminated
Feb 3
Waning Gibbous
Feb 3
Last Quarter
Feb 10
New
Feb 17
First Quarter
Feb 25
Full

Hourly Weather History & Observations

Time (EET) Temp. Dew Point Humidity Pressure Visibility Wind Dir Wind Speed Gust Speed Precip Events Conditions
12:20 AM 51.8 °F 46.4 °F 82% 30.04 in 6.2 mi East 1.2 mph - N/A   Mostly Cloudy
12:50 AM 57.2 °F 51.8 °F 82% 30.04 in 6.2 mi SE 9.2 mph - N/A   Mostly Cloudy
1:20 AM 57.2 °F 51.8 °F 82% 30.04 in 6.2 mi SE 9.2 mph - N/A   Mostly Cloudy
1:50 AM 55.4 °F 48.2 °F 77% 30.04 in 6.2 mi Variable 1.2 mph - N/A   Mostly Cloudy
2:20 AM 57.2 °F 50.0 °F 77% 30.04 in 6.2 mi SE 6.9 mph - N/A   Mostly Cloudy
2:50 AM 57.2 °F 50.0 °F 77% 30.04 in 6.2 mi SE 5.8 mph - N/A   Mostly Cloudy
3:20 AM 57.2 °F 50.0 °F 77% 30.04 in 6.2 mi SSE 6.9 mph - N/A   Mostly Cloudy
3:50 AM 59.0 °F 50.0 °F 72% 30.04 in 6.2 mi SE 5.8 mph - N/A   Mostly Cloudy
4:20 AM 59.0 °F 50.0 °F 72% 30.04 in 6.2 mi SE 6.9 mph - N/A   Scattered Clouds
4:50 AM 59.0 °F 51.8 °F 77% 30.04 in 6.2 mi SE 11.5 mph - N/A   Scattered Clouds
5:20 AM 59.0 °F 51.8 °F 77% 30.04 in 6.2 mi SE 9.2 mph - N/A   Scattered Clouds
5:50 AM 59.0 °F 51.8 °F 77% 30.04 in 6.2 mi SSE 8.1 mph - N/A   Mostly Cloudy
6:20 AM 60.8 °F 50.0 °F 68% 30.04 in 6.2 mi SE 9.2 mph - N/A   Mostly Cloudy
6:50 AM 60.8 °F 50.0 °F 68% 30.06 in 6.2 mi SE 8.1 mph - N/A   Mostly Cloudy
7:20 AM 60.8 °F 48.2 °F 63% 30.06 in 6.2 mi SE 12.7 mph - N/A   Mostly Cloudy
7:50 AM 60.8 °F 50.0 °F 68% 30.06 in 6.2 mi SE 12.7 mph - N/A   Mostly Cloudy
8:20 AM 60.8 °F 50.0 °F 68% 30.06 in 6.2 mi SE 10.4 mph - N/A   Mostly Cloudy
8:50 AM 62.6 °F 48.2 °F 59% 30.09 in 6.2 mi SE 16.1 mph - N/A   Mostly Cloudy
9:20 AM 62.6 °F 48.2 °F 59% 30.09 in 6.2 mi SE 13.8 mph - N/A   Mostly Cloudy
9:50 AM 62.6 °F 48.2 °F 59% 30.09 in 6.2 mi SE 15.0 mph - N/A   Mostly Cloudy
10:20 AM 62.6 °F 48.2 °F 59% 30.09 in 6.2 mi SE 16.1 mph - N/A   Mostly Cloudy
10:50 AM 64.4 °F 48.2 °F 56% 30.09 in 6.2 mi SSE 13.8 mph - N/A   Mostly Cloudy
11:20 AM 64.4 °F 48.2 °F 56% 30.09 in 6.2 mi SSE 18.4 mph 31.1 mph N/A   Mostly Cloudy
11:50 AM 66.2 °F 50.0 °F 56% 30.09 in 6.2 mi SSE 17.3 mph 29.9 mph N/A   Mostly Cloudy
12:20 PM 66.2 °F 50.0 °F 56% 30.06 in 6.2 mi SSE 16.1 mph - N/A   Mostly Cloudy
12:50 PM 66.2 °F 48.2 °F 52% 30.06 in 6.2 mi SSE 17.3 mph - N/A   Mostly Cloudy
1:20 PM 66.2 °F 50.0 °F 56% 30.06 in 6.2 mi SE 19.6 mph - N/A   Mostly Cloudy
1:50 PM 66.2 °F 50.0 °F 56% 30.06 in 6.2 mi SE 17.3 mph - N/A   Mostly Cloudy
2:20 PM 66.2 °F 50.0 °F 56% 30.06 in 6.2 mi SE 16.1 mph - N/A   Mostly Cloudy
2:50 PM 64.4 °F 50.0 °F 59% 30.06 in 6.2 mi SE 20.7 mph - N/A   Mostly Cloudy
3:20 PM 64.4 °F 48.2 °F 56% 30.06 in 6.2 mi SE 23.0 mph - N/A   Mostly Cloudy
3:50 PM 64.4 °F 48.2 °F 56% 30.06 in 6.2 mi SE 24.2 mph - N/A   Mostly Cloudy
4:20 PM 64.4 °F 48.2 °F 56% 30.06 in 6.2 mi SE 16.1 mph - N/A   Mostly Cloudy
4:50 PM 62.6 °F 48.2 °F 59% 30.06 in 6.2 mi SE 11.5 mph - N/A   Mostly Cloudy
5:20 PM 62.6 °F 48.2 °F 59% 30.06 in 6.2 mi SE 8.1 mph - N/A   Mostly Cloudy
5:50 PM 60.8 °F 48.2 °F 63% 30.06 in 6.2 mi SE 12.7 mph - N/A   Mostly Cloudy
6:20 PM 62.6 °F 46.4 °F 55% 30.06 in 6.2 mi SE 17.3 mph - N/A   Mostly Cloudy
6:50 PM 60.8 °F 48.2 °F 63% 30.06 in 6.2 mi SE 15.0 mph - N/A   Mostly Cloudy
7:20 PM 62.6 °F 46.4 °F 55% 30.09 in 6.2 mi SE 16.1 mph - N/A   Mostly Cloudy
7:50 PM 60.8 °F 48.2 °F 63% 30.09 in 6.2 mi SE 12.7 mph - N/A   Mostly Cloudy
8:20 PM 60.8 °F 46.4 °F 59% 30.09 in 6.2 mi SSE 11.5 mph - N/A   Mostly Cloudy
8:50 PM 60.8 °F 48.2 °F 63% 30.12 in 6.2 mi ESE 6.9 mph - N/A   Mostly Cloudy
9:20 PM 60.8 °F 48.2 °F 63% 30.12 in 6.2 mi SE 6.9 mph - N/A   Mostly Cloudy
9:50 PM 60.8 °F 46.4 °F 59% 30.12 in 6.2 mi SSE 10.4 mph - N/A   Mostly Cloudy
10:20 PM 60.8 °F 48.2 °F 63% 30.12 in 6.2 mi SE 8.1 mph - N/A   Mostly Cloudy
10:50 PM 59.0 °F 46.4 °F 63% 30.15 in 6.2 mi SE 5.8 mph - N/A   Mostly Cloudy
11:20 PM 60.8 °F 46.4 °F 59% 30.15 in 6.2 mi Variable 3.5 mph - N/A   Mostly Cloudy
11:50 PM 59.0 °F 46.4 °F 63% 30.15 in 6.2 mi SE 4.6 mph - N/A   Mostly Cloudy